Tracking 35334 objects as of 13-Sep-2026
HD Live streaming from Space Station
objects crossing your sky now

SL-12 DEB

Track SL-12 DEB now!
10-day predictions


NORAD ID: 41703
Int'l Code: 2010-007V
Launch date: March 1, 2010
Source: Commonwealth of Independent States (former USSR) (CIS)
Launch site: TYURATAM MISSILE AND SPACE COMPLEX (TTMTR)

Note: This is SATELLITE DEBRIS
Your satellite tracking list
Your tracking list is empty




NASA's NSSDC Master Catalog

Two Line Element Set (TLE):
1 41703U 10007V   22276.00000204  .00007031  00000-0  81136-2 0  9990
2 41703  64.6313 286.3576 5723372 356.2035   0.8841  4.32580651119422
Source of the keplerian elements: AFSPC